Temp
64 71 77 78 78 78 78 78 78 78 78 79 79 79 78 78 78 78 78 78 78 79 79 80 80 79 79 79 79 78 77 77 77 76 76 77 78 78 78 77 76 76 78
69 71 77 78 78 78 78 78 77 77 78 79 79 79 79 79 78 78 78 78 79 79 80 80 80 79 79 78 78 77 77 76 75 74 73 73 75 77 78 77 76 77 78
71 73 76 77 77 78 78 77 77 77 77 78 78 79 79 78 78 78 78 78 78 79 79 79 79 78 78 77 77 77 76 76 75 74 73 72 74 77 77 76 77 78 78
72 74 75 77 77 77 77 77 77 77 77 77 78 78 78 78 78 78 78 78 78 78 78 77 77 77 77 77 76 76 76 75 73 72 71 72 76 78 78 78 78 78 78
72 75 75 76 77 77 77 77 77 77 77 77 77 77 78 78 78 78 77 76 76 76 76 77 77 76 76 76 76 75 75 73 72 71 70 70 71 78 78 78 77 77 77
75 73 74 76 76 76 76 76 77 77 77 77 76 77 77 77 76 76 75 74 74 75 75 76 76 75 75 75 75 75 74 72 71 69 69 72 71 78 78 77 77 77 77
70 72 74 76 76 76 76 76 76 76 76 76 76 76 76 76 75 75 74 74 74 74 74 74 74 74 74 74 74 73 72 70 69 68 69 70 71 78 78 77 77 76 77
72 73 74 74 75 75 75 75 76 76 76 76 76 76 76 75 75 75 74 74 75 75 74 73 73 72 72 72 72 70 69 68 68 68 69 70 74 78 78 76 76 76 77
74 73 73 73 73 73 74 74 74 75 75 75 75 75 74 73 74 74 74 74 74 74 74 73 72 72 71 71 70 68 67 67 66 67 71 69 74 77 78 77 77 77 76
72 72 72 71 72 71 71 72 72 72 73 73 73 71 70 70 71 72 72 72 73 72 72 71 70 70 69 68 67 66 65 65 65 66 67 71 75 77 77 77 77 76 76
70 71 72 72 71 71 71 68 70 70 70 69 68 68 68 69 68 68 68 68 70 70 69 68 67 66 64 64 64 64 63 61 64 66 67 72 75 77 77 76 76 76 75
67 69 71 71 70 71 69 69 68 68 69 69 70 68 68 67 66 65 65 66 67 67 66 65 64 62 59 58 58 60 59 59 61 64 67 72 76 76 76 75 75 75 75
68 68 69 69 70 69 68 67 67 67 66 65 65 65 64 64 63 60 59 56 55 57 55 56 55 55 54 55 56 55 57 58 57 60 64 69 75 76 76 75 74 75 75
66 67 68 69 68 67 67 66 65 64 64 62 62 63 63 61 60 57 54 52 54 55 53 53 54 53 53 54 54 53 53 54 55 56 58 65 70 74 75 75 74 75 75
65 65 66 67 66 66 65 64 64 62 62 61 60 59 62 60 57 55 52 52 52 54 53 52 53 53 53 53 54 54 53 52 52 53 54 60 65 69 72 73 73 74 74
66 64 65 64 66 64 63 63 62 62 60 61 60 58 57 57 55 53 52 52 51 52 52 52 52 53 52 53 53 54 54 54 53 53 54 54 59 63 66 71 74 73 74
65 65 64 63 62 62 62 61 61 59 61 60 56 54 54 56 55 53 51 51 51 51 51 51 51 51 51 53 52 52 52 52 53 53 53 54 53 56 61 66 70 72 72
64 63 62 62 61 60 59 58 56 57 58 56 54 54 53 53 54 52 51 49 51 51 51 51 52 51 49 50 49 48 48 48 50 50 52 51 51 51 54 59 64 67 70
63 61 60 60 59 57 55 53 53 52 52 49 50 52 50 52 52 51 49 48 50 50 50 50 47 49 48 48 48 47 44 43 43 48 48 50 50 49 51 54 56 60 65
62 60 59 58 55 54 51 50 49 48 48 51 49 52 52 52 50 50 48 48 49 49 49 49 48 48 49 48 49 46 43 43 42 42 42 46 47 48 48 48 49 52 59
59 58 56 54 52 52 50 49 49 47 47 48 49 50 51 51 50 50 48 47 47 48 46 47 46 46 45 47 42 43 42 42 42 40 41 41 42 44 46 45 48 49 49
54 54 53 53 53 54 53 54 48 47 46 46 48 48 50 48 49 49 48 46 44 45 45 45 44 39 41 43 42 42 38 43 41 42 41 41 38 41 42 43 44 46 47
52 52 51 51 52 53 53 48 46 46 47 45 45 45 46 47 46 47 46 45 44 45 44 41 41 42 36 37 41 43 37 36 34 38 37 37 37 37 38 40 41 42 44
52 52 50 50 50 48 49 48 48 48 46 44 46 45 43 46 46 44 43 44 44 42 41 40 41 39 40 37 39 41 38 38 34 32 35 36 38 38 36 37 37 39 40
51 49 49 49 47 47 47 49 49 48 44 43 44 44 44 43 44 43 42 42 42 43 40 41 40 40 39 38 37 37 37 36 36 33 30 31 35 35 36 35 35 35 38
48 48 48 47 46 46 47 47 47 43 43 42 40 41 40 39 42 43 41 40 40 40 40 39 39 39 39 38 38 38 38 38 36 33 29 29 30 32 35 39 37 37 35
MSLP
1012.39 1012.42 1012.69 1012.93 1013.41 1013.80 1014.20 1014.49 1014.73 1014.83 1014.99 1015.17 1015.31 1015.51 1015.72 1015.97 1016.17 1016.32 1016.55 1016.77 1016.89 1016.97 1017.08 1017.16 1017.26 1017.52 1017.68 1017.89 1018.04 1018.16 1018.32 1018.47 1018.63 1018.87 1018.96 1018.96 1019.00 1019.06 1019.17 1019.36 1019.40 1019.49 1019.55
1011.29 1012.01 1012.50 1012.93 1013.44 1013.89 1014.29 1014.66 1015.00 1015.06 1015.25 1015.45 1015.61 1015.84 1016.02 1016.25 1016.45 1016.69 1016.90 1017.03 1017.22 1017.30 1017.47 1017.63 1017.82 1017.96 1018.23 1018.45 1018.67 1018.84 1019.07 1019.14 1019.28 1019.47 1019.56 1019.59 1019.62 1019.70 1019.69 1019.87 1019.86 1019.96 1020.02
1011.55 1011.99 1012.49 1013.08 1013.50 1013.94 1014.44 1014.81 1015.19 1015.35 1015.53 1015.74 1015.97 1016.15 1016.36 1016.57 1016.86 1016.98 1017.22 1017.43 1017.56 1017.65 1017.87 1018.17 1018.36 1018.62 1018.89 1019.02 1019.27 1019.46 1019.60 1019.76 1019.89 1019.96 1020.08 1020.16 1020.16 1020.14 1020.31 1020.39 1020.28 1020.50 1020.55
1011.31 1011.88 1012.44 1013.04 1013.64 1014.13 1014.52 1014.98 1015.29 1015.58 1015.84 1016.07 1016.20 1016.52 1016.73 1016.93 1017.19 1017.37 1017.54 1017.78 1017.93 1018.08 1018.41 1018.73 1018.94 1019.14 1019.26 1019.50 1019.72 1019.93 1020.07 1020.29 1020.35 1020.41 1020.45 1020.58 1020.53 1020.72 1020.71 1020.75 1020.71 1020.92 1020.96
1011.39 1011.88 1012.52 1013.06 1013.63 1014.23 1014.65 1015.21 1015.42 1015.73 1016.04 1016.36 1016.54 1016.85 1017.15 1017.41 1017.57 1017.93 1018.05 1018.29 1018.57 1018.78 1019.00 1019.17 1019.36 1019.59 1019.68 1019.93 1020.13 1020.38 1020.58 1020.66 1020.79 1020.84 1020.96 1021.12 1021.05 1021.14 1021.14 1021.25 1021.33 1021.49 1021.54
1011.44 1012.07 1012.60 1013.14 1013.69 1014.26 1014.75 1015.27 1015.58 1015.94 1016.28 1016.61 1017.00 1017.26 1017.61 1017.89 1018.22 1018.58 1018.87 1018.99 1019.18 1019.48 1019.60 1019.57 1019.98 1020.28 1020.38 1020.53 1020.74 1020.97 1021.13 1021.21 1021.25 1021.33 1021.40 1021.44 1021.55 1021.54 1021.67 1021.81 1021.83 1021.89 1021.98
1011.75 1012.21 1012.76 1013.15 1013.74 1014.47 1014.93 1015.34 1015.80 1016.16 1016.53 1016.89 1017.29 1017.64 1018.10 1018.38 1018.86 1019.19 1019.39 1019.45 1019.60 1019.89 1020.22 1020.04 1020.59 1021.05 1021.20 1021.28 1021.38 1021.55 1021.73 1021.81 1021.79 1021.85 1021.93 1021.96 1022.05 1021.99 1022.09 1022.17 1022.18 1022.33 1022.41
1011.89 1012.34 1012.86 1013.39 1013.92 1014.60 1015.13 1015.58 1016.00 1016.37 1016.78 1017.20 1017.53 1017.98 1018.43 1018.90 1019.27 1019.59 1019.79 1019.91 1020.05 1020.31 1020.47 1021.13 1020.84 1021.30 1021.71 1022.02 1022.13 1022.19 1022.33 1022.36 1022.38 1022.44 1022.45 1022.45 1022.38 1022.37 1022.45 1022.58 1022.68 1022.80 1022.94
1012.01 1012.41 1013.10 1013.69 1014.27 1014.79 1015.38 1015.75 1016.21 1016.58 1017.14 1017.51 1017.87 1018.40 1018.97 1019.34 1019.61 1019.99 1020.12 1020.37 1020.54 1020.94 1021.23 1021.53 1022.02 1022.02 1022.68 1022.43 1022.69 1022.82 1022.98 1022.92 1023.02 1023.14 1022.97 1022.98 1022.80 1022.83 1022.93 1023.01 1023.10 1023.24 1023.39
1012.39 1012.75 1013.24 1013.87 1014.54 1015.09 1015.69 1016.06 1016.47 1016.91 1017.45 1017.86 1018.34 1018.92 1019.46 1019.89 1020.12 1020.43 1020.69 1020.94 1021.33 1021.62 1021.90 1022.21 1022.66 1022.94 1023.16 1023.22 1023.17 1023.65 1023.37 1023.56 1023.77 1023.77 1023.59 1023.40 1023.20 1023.24 1023.39 1023.45 1023.60 1023.73 1023.87
1012.61 1012.90 1013.39 1013.99 1014.66 1015.25 1015.87 1016.49 1016.89 1017.41 1017.91 1018.37 1018.92 1019.46 1019.95 1020.42 1020.77 1021.05 1021.40 1021.71 1022.16 1022.43 1022.72 1023.02 1023.45 1023.67 1023.76 1023.87 1024.00 1024.18 1024.05 1024.60 1024.52 1024.48 1024.18 1023.78 1023.69 1023.68 1023.78 1023.92 1024.10 1024.23 1024.35
1012.36 1012.85 1013.53 1014.10 1014.68 1015.23 1016.04 1016.70 1017.34 1017.92 1018.47 1018.83 1019.32 1019.91 1020.46 1020.90 1021.30 1021.77 1022.14 1022.53 1022.94 1023.21 1023.55 1023.86 1024.25 1024.55 1024.47 1024.77 1025.05 1025.20 1025.37 1025.46 1025.52 1025.32 1024.83 1024.23 1024.07 1024.17 1024.24 1024.34 1024.51 1024.64 1024.81
1012.27 1012.89 1013.47 1014.30 1014.81 1015.36 1016.06 1016.87 1017.65 1018.27 1018.94 1019.52 1019.97 1020.32 1020.93 1021.53 1022.09 1022.74 1023.20 1023.67 1024.01 1024.34 1024.55 1024.79 1025.06 1025.42 1025.63 1025.73 1026.21 1026.41 1026.45 1026.41 1026.57 1026.26 1025.82 1025.15 1024.63 1024.54 1024.74 1024.80 1024.94 1024.98 1025.14
1012.43 1012.88 1013.58 1014.19 1014.93 1015.75 1016.27 1016.99 1017.79 1018.55 1019.31 1020.01 1020.43 1020.76 1021.27 1022.01 1022.71 1023.53 1024.10 1024.29 1024.47 1024.92 1025.16 1025.46 1025.85 1026.34 1026.49 1026.84 1027.08 1027.28 1027.50 1027.49 1027.55 1027.34 1026.92 1026.18 1025.45 1025.10 1025.11 1025.20 1025.26 1025.31 1025.48
1012.53 1013.05 1013.60 1014.32 1015.13 1015.75 1016.50 1017.24 1017.95 1018.83 1019.53 1020.22 1020.71 1021.21 1021.58 1022.35 1023.24 1024.03 1024.58 1024.81 1025.12 1025.38 1025.71 1026.12 1026.50 1026.87 1027.30 1027.70 1027.71 1028.08 1028.24 1028.42 1028.58 1028.12 1027.94 1027.48 1026.59 1026.17 1025.88 1025.58 1025.55 1025.61 1025.76
1012.60 1013.08 1013.69 1014.50 1015.10 1015.93 1016.83 1017.43 1018.13 1018.88 1019.77 1020.38 1020.98 1021.55 1022.04 1022.68 1023.45 1024.24 1024.90 1025.30 1025.73 1025.99 1026.42 1026.76 1027.21 1027.55 1028.13 1028.37 1028.58 1028.85 1029.07 1029.17 1029.10 1028.67 1028.82 1028.71 1028.19 1027.40 1026.94 1026.00 1025.70 1025.95 1025.98
1011.91 1013.04 1013.62 1014.49 1015.22 1016.27 1017.06 1017.80 1018.42 1019.15 1019.77 1020.58 1021.37 1021.98 1022.51 1022.91 1023.49 1024.11 1024.90 1025.61 1026.08 1026.46 1026.86 1027.38 1027.93 1028.28 1028.61 1028.97 1029.32 1029.62 1029.82 1029.88 1029.74 1029.86 1029.83 1029.53 1029.23 1028.87 1028.22 1027.32 1026.42 1026.45 1026.43
1011.95 1012.89 1013.60 1014.57 1015.56 1016.59 1017.42 1018.29 1019.03 1019.43 1019.96 1020.84 1021.60 1022.19 1022.74 1023.15 1023.64 1024.31 1024.99 1025.74 1026.25 1026.65 1027.10 1027.59 1028.02 1028.56 1029.22 1029.69 1030.26 1030.76 1030.91 1031.12 1031.07 1031.01 1030.69 1030.36 1030.25 1030.20 1029.58 1028.83 1028.11 1027.52 1027.14
1011.98 1012.90 1013.73 1014.79 1015.45 1016.67 1017.76 1018.76 1019.65 1020.02 1020.59 1021.27 1021.91 1022.52 1023.10 1023.45 1023.88 1024.42 1025.27 1025.97 1026.32 1026.89 1027.44 1027.87 1028.75 1028.71 1029.68 1030.41 1031.08 1031.73 1032.11 1032.30 1032.27 1031.94 1031.57 1031.36 1031.30 1030.91 1030.66 1030.06 1029.88 1029.28 1028.84
1012.02 1013.14 1014.02 1014.95 1015.80 1016.74 1017.98 1019.14 1020.21 1020.87 1021.38 1021.66 1022.30 1022.75 1023.27 1023.80 1024.20 1024.60 1025.55 1026.09 1026.43 1027.03 1027.84 1028.39 1028.92 1029.68 1030.00 1030.68 1031.47 1032.23 1032.81 1033.09 1033.02 1033.06 1033.06 1032.70 1032.48 1032.08 1031.79 1031.44 1031.25 1031.03 1030.59
1012.30 1013.31 1014.23 1015.13 1016.16 1016.53 1017.98 1019.27 1020.57 1021.26 1021.85 1022.29 1022.68 1023.10 1023.47 1023.97 1024.37 1024.83 1025.70 1026.37 1026.74 1027.20 1028.01 1028.73 1029.40 1029.92 1030.81 1031.00 1031.31 1032.89 1033.62 1033.90 1033.93 1034.13 1034.00 1033.80 1033.48 1033.26 1032.87 1032.67 1032.45 1032.06 1032.08
1012.29 1013.41 1014.39 1015.42 1016.31 1017.07 1017.56 1018.73 1019.76 1021.03 1021.98 1022.62 1023.00 1023.50 1023.85 1024.27 1024.62 1024.95 1025.60 1026.47 1026.94 1027.45 1028.27 1028.80 1029.12 1030.22 1030.88 1031.25 1031.77 1032.69 1034.24 1034.65 1034.70 1034.87 1034.84 1034.67 1034.66 1034.21 1033.87 1033.75 1033.52 1033.30 1033.13
1012.59 1013.43 1014.36 1015.54 1016.41 1017.31 1017.96 1018.86 1020.20 1021.48 1021.90 1023.07 1023.45 1023.86 1024.41 1024.66 1025.04 1025.18 1025.77 1026.37 1027.01 1027.43 1028.32 1029.00 1029.29 1029.59 1030.65 1031.56 1031.53 1031.92 1033.89 1034.55 1035.26 1035.57 1035.67 1035.77 1035.55 1035.38 1035.23 1034.94 1034.73 1034.43 1034.08
1012.92 1013.70 1014.50 1015.57 1016.63 1017.67 1018.24 1018.81 1019.17 1020.62 1021.58 1022.44 1023.16 1023.83 1024.61 1025.08 1025.41 1025.81 1026.27 1026.57 1026.95 1027.53 1028.37 1029.12 1029.52 1029.86 1030.21 1031.25 1031.88 1032.04 1032.29 1032.97 1034.76 1036.18 1036.30 1036.45 1036.20 1036.08 1036.22 1035.94 1035.86 1035.54 1035.21
1013.09 1014.05 1014.92 1015.80 1016.96 1017.91 1018.31 1019.10 1019.50 1020.95 1021.76 1022.74 1023.49 1023.95 1024.62 1025.17 1025.69 1026.26 1026.59 1026.91 1027.39 1027.52 1028.14 1028.98 1029.62 1030.05 1030.36 1031.20 1031.64 1032.43 1032.97 1033.38 1033.81 1034.78 1036.45 1036.87 1036.73 1036.93 1036.77 1036.75 1036.61 1036.50 1036.21
1013.69 1014.46 1015.16 1016.03 1017.11 1018.14 1018.39 1019.98 1019.69 1021.12 1021.41 1023.04 1023.44 1023.83 1025.17 1025.52 1025.85 1026.55 1026.82 1027.07 1027.49 1027.86 1028.05 1029.04 1029.58 1030.09 1030.54 1031.01 1031.52 1031.90 1032.52 1033.17 1033.96 1034.57 1036.03 1036.90 1037.13 1037.53 1037.26 1037.07 1037.01 1037.02 1036.91
Wind_Speed
7 9 17 18 18 18 17 17 15 15 16 17 19 19 19 18 17 18 17 18 18 18 19 19 19 20 20 20 20 20 20 20 19 16 16 16 18 19 19 18 17 14 21
14 12 19 18 18 18 17 17 14 15 16 17 18 19 19 18 18 18 18 19 19 20 21 22 21 21 21 21 20 21 20 19 18 15 14 13 15 18 19 17 18 17 22
18 12 16 18 18 17 17 17 14 15 15 16 17 17 19 19 18 19 19 20 20 22 21 22 22 21 19 20 19 19 20 18 16 14 12 7 10 17 18 17 18 19 21
17 12 15 19 19 18 18 18 16 16 15 15 16 17 18 20 21 21 22 21 21 21 22 21 20 17 17 18 18 19 18 17 14 12 6 6 9 16 17 18 19 20 20
16 14 15 21 21 19 19 17 17 17 16 16 16 17 18 20 21 22 23 22 20 20 19 19 18 18 18 18 19 20 18 16 13 9 7 6 5 13 17 17 17 18 18
17 13 16 22 21 20 19 18 17 18 17 18 17 18 19 22 23 23 22 21 22 21 21 22 21 20 21 21 21 20 18 16 11 7 6 8 6 17 17 17 17 18 18
12 12 16 22 22 20 20 18 19 19 19 18 19 20 21 21 21 21 20 20 22 22 20 24 24 22 22 21 21 20 19 15 8 7 6 6 6 16 16 15 17 17 19
15 13 15 20 21 21 20 19 20 20 20 20 20 20 20 20 21 20 19 20 21 20 22 20 23 22 21 21 21 21 20 16 10 8 6 5 12 16 16 18 16 17 19
15 13 13 13 15 18 19 19 20 20 19 20 21 21 19 19 19 20 19 20 21 22 21 23 22 23 21 21 21 21 21 18 10 6 6 4 12 16 16 16 17 17 17
12 14 14 12 12 13 12 17 19 19 18 18 20 18 16 15 17 18 19 20 20 22 23 23 23 22 23 22 23 20 20 19 10 8 4 4 12 16 15 15 15 16 16
11 14 14 14 13 13 13 11 16 21 21 21 19 20 15 10 11 15 18 20 20 21 23 23 23 22 22 24 22 20 19 7 9 7 5 10 13 14 14 14 14 15 15
14 15 14 14 14 15 10 13 12 13 10 11 12 13 9 11 10 13 16 19 20 22 22 22 21 19 15 8 8 13 7 9 8 8 8 10 12 13 13 13 13 13 14
15 12 15 14 14 14 12 10 7 6 7 7 10 10 11 10 8 7 6 6 6 11 6 10 10 9 11 9 8 8 8 8 6 7 16 21 10 11 11 11 11 13 13
13 15 16 16 14 12 10 8 8 7 8 7 7 11 9 6 8 7 5 5 6 5 9 8 7 9 11 11 11 11 10 8 6 5 13 25 23 10 9 9 9 11 14
13 13 15 16 14 12 11 9 9 9 8 8 8 7 8 8 8 7 5 5 6 6 7 8 8 8 10 10 10 10 10 10 9 6 6 24 25 27 23 6 6 11 14
14 13 15 15 15 12 10 11 9 8 9 9 8 7 8 8 8 8 6 6 6 6 6 7 7 9 8 8 11 10 10 9 9 11 7 8 23 28 28 25 8 11 15
15 16 17 15 15 13 13 9 8 8 9 9 7 7 7 9 10 10 8 6 6 7 10 9 9 8 9 8 12 10 9 11 10 11 8 8 10 20 26 29 26 7 14
15 16 16 14 16 13 12 7 6 7 8 7 7 7 7 8 9 9 8 7 7 7 7 7 7 9 9 9 9 8 9 9 10 10 9 9 9 8 12 26 30 28 14
15 14 15 15 18 16 12 8 7 7 6 6 6 6 6 8 9 8 7 7 8 7 7 7 5 8 8 9 9 8 8 8 8 8 11 11 11 10 8 17 24 28 27
16 14 13 12 15 15 11 9 7 6 5 5 5 6 8 7 9 10 7 8 7 8 7 7 10 6 8 9 10 9 8 7 7 8 8 7 9 10 10 12 9 11 25
14 15 16 15 14 14 11 10 6 7 4 4 4 7 7 7 8 10 7 7 6 8 8 9 9 12 7 6 5 6 7 7 9 7 6 6 8 8 10 9 7 7 8
15 14 15 14 14 12 11 9 5 7 5 4 4 5 6 7 7 9 10 7 7 9 10 8 7 4 3 1 4 3 3 2 5 7 6 6 8 6 9 10 10 10 8
16 16 16 15 14 10 11 10 9 7 8 3 3 4 3 5 5 8 8 8 8 7 8 5 5 6 4 1 3 5 3 3 2 3 6 5 6 6 6 7 9 9 9
13 13 15 15 13 10 11 11 18 10 10 4 5 5 5 5 6 5 6 7 8 7 8 4 4 3 4 5 2 4 5 5 5 1 3 4 5 6 6 5 7 8 8
14 13 13 15 13 12 10 11 12 12 7 5 6 9 7 5 5 6 5 7 7 6 8 8 5 5 3 4 3 3 3 4 4 4 3 1 4 4 4 4 5 5 7
10 13 13 14 11 13 14 9 11 12 15 10 8 8 4 4 4 4 5 6 6 6 8 6 5 5 4 5 3 3 3 3 3 4 4 2 3 2 3 4 5 4 4
Wind_Direction
194 175 165 160 150 142 140 134 130 124 122 123 122 119 115 112 110 110 107 111 107 103 99 98 100 100 98 93 89 86 87 87 87 86 86 84 86 89 88 81 78 79 84
154 169 160 160 150 148 144 133 132 126 126 126 124 119 117 114 112 112 112 113 109 108 105 99 96 97 97 93 92 92 91 89 87 79 75 78 81 87 87 84 86 83 81
156 166 154 159 153 149 142 132 133 124 124 124 123 121 118 114 112 112 110 109 109 107 103 97 96 95 95 96 92 94 92 87 80 75 71 73 85 88 92 92 92 89 85
153 159 154 156 152 148 140 135 134 128 125 124 123 122 121 117 114 110 110 110 110 104 100 98 97 92 96 104 93 91 88 81 69 60 59 65 90 95 91 95 92 90 87
155 154 155 155 148 144 139 140 134 131 126 126 125 125 122 119 114 110 102 101 99 97 98 93 88 89 89 97 95 92 86 78 66 64 63 68 75 94 92 88 88 90 90
158 148 156 152 145 144 142 139 134 126 124 124 123 124 124 116 108 104 99 94 93 87 83 82 80 84 84 85 86 83 77 70 64 56 60 75 80 97 97 98 96 99 94
146 151 152 147 145 145 141 136 133 128 125 127 125 122 123 121 116 110 104 98 92 89 85 92 83 79 76 81 82 75 65 59 62 54 57 64 92 100 93 99 106 99 98
151 156 147 145 145 145 139 136 133 130 127 126 126 125 121 120 118 116 108 103 102 101 105 101 102 94 82 79 78 69 59 50 48 49 50 61 98 97 89 91 99 98 94
157 145 143 141 142 139 138 136 132 129 130 129 123 119 120 118 115 112 106 103 100 104 99 97 96 96 97 94 77 70 60 52 46 32 50 53 93 98 95 91 94 96 96
153 141 143 137 139 136 136 134 127 122 122 121 120 114 105 102 107 109 97 95 98 98 96 93 93 93 86 80 76 67 64 47 38 26 21 73 95 100 100 93 93 92 98
155 147 147 145 141 135 134 119 114 116 113 108 106 105 105 106 96 91 94 91 94 98 96 91 87 83 80 69 66 63 57 45 43 26 6 87 87 93 94 98 98 100 97
160 151 152 150 148 140 131 123 116 120 120 120 120 110 107 103 98 96 89 94 97 96 94 89 82 73 65 61 52 49 54 44 39 35 22 40 82 93 98 100 101 102 103
159 151 148 151 148 140 140 129 126 119 115 109 111 110 109 105 95 85 87 80 83 78 74 76 69 58 59 58 59 51 46 49 34 31 28 29 64 90 95 100 108 108 110
163 155 150 148 142 143 135 131 125 125 128 124 115 118 117 110 103 97 90 81 86 83 84 76 77 76 68 65 63 59 47 43 30 29 27 32 36 68 86 108 117 121 119
163 153 149 145 143 138 131 132 130 130 134 130 122 110 123 118 113 115 98 88 85 93 89 85 82 78 72 69 65 60 52 43 35 31 29 30 39 45 41 43 126 124 122
165 157 150 145 142 134 134 135 134 134 136 137 129 124 114 123 126 121 112 105 96 95 88 88 89 87 77 72 65 59 53 51 44 38 28 24 32 40 36 31 133 124 126
161 159 152 142 139 135 135 130 134 137 137 140 133 125 129 132 134 130 123 111 108 104 104 99 92 89 85 74 67 55 47 37 38 38 31 27 22 26 34 36 46 107 113
150 161 145 147 140 133 127 123 125 130 136 135 134 131 127 119 128 126 126 122 123 115 111 107 107 94 85 77 70 54 49 40 36 33 34 33 27 9 19 34 39 46 81
155 148 143 150 142 133 121 115 108 109 116 114 106 116 115 121 120 117 122 125 124 116 110 115 92 105 105 93 82 68 52 42 34 31 31 32 29 22 16 27 37 42 37
151 149 144 151 136 128 122 114 100 97 87 101 106 119 123 128 123 121 120 123 125 122 118 118 109 96 108 108 92 73 56 41 37 34 23 28 28 28 24 24 22 30 38
140 146 146 146 147 137 138 132 143 134 125 92 92 114 117 129 130 131 128 127 123 131 128 124 114 115 103 120 95 74 55 44 44 29 18 22 27 27 31 28 26 28 20
140 144 143 150 156 161 155 154 121 141 97 96 106 96 117 122 129 135 141 142 129 129 127 141 137 128 95 352 113 104 99 31 39 32 26 22 23 23 33 30 30 32 28
149 148 146 153 149 151 147 124 99 90 98 90 95 99 92 124 132 140 138 144 134 138 146 138 131 126 136 48 75 125 118 179 107 352 23 20 27 31 29 26 23 25 26
159 145 141 139 138 135 145 139 152 157 151 143 142 118 104 90 95 107 125 138 142 131 131 135 129 119 121 133 90 45 48 132 149 110 6 12 29 35 26 33 32 19 15
145 142 138 134 132 140 133 159 147 153 117 121 134 135 124 100 117 116 131 140 148 148 139 144 137 136 100 129 122 132 77 62 72 125 154 329 39 18 29 34 43 30 15
127 137 138 135 141 152 142 166 148 158 145 145 135 127 126 104 122 142 138 142 136 147 138 143 134 136 124 114 117 119 137 152 159 129 120 118 124 11 32 34 40 30 26